Location: Unspecified
(0.0000°N, 0.0000°E)
Time: 23:23:32
(UTC+00:00)

Cosmos 80 Rocket - Pass Details

Date: 01 October 2021
Orbit: 1360 x 1510 km, 56.1° (Epoch: 26 October)

Event Time Altitude Azimuth Distance (km) Brightness Sun altitude
Rises 18:13:24 0° 350° (N) 4,604 8.1 -6.0°
Reaches altitude 10° 18:16:55 10° 0° (N) 3,608 7.4 -6.8°
Maximum altitude 18:24:29 30° 58° (ENE) 2,350 6.0 -8.7°
Drops below altitude 10° 18:31:50 10° 116° (ESE) 3,521 6.9 -10.6°
Enters shadow 18:33:46 - 123° (ESE) 4,065 7.2 -11.0°
